Weather Service Report


394 
ASUS43 KLSX 010107
RWRMO 

WEATHER SUMMARY FOR MISSOURI
NATIONAL WEATHER SERVICE SPRINGFIELD MO
800 PM CDT TUE MAR 31 2015

NOTE: "FAIR" INDICATES FEW OR NO CLOUDS BELOW 12,000 FEET WITH NO
       SIGNIFICANT WEATHER AND/OR OBSTRUCTIONS TO VISIBILITY.
       CURRENT SKY AND/OR WEATHER CONDITIONS ARE NOT AVAILABLE FOR
       CHILLICOTHE AND FARMINGTON.

MOZ001>031-035>038-043-044-053-054-010200-
...NORTHERN AND WESTERN MISSOURI...
  
CITY           SKY/WX    TMP DP  RH WIND       PRES   REMARKS
KANSAS CTY INT PTCLDY    67  31  26 CALM      29.92S                  
KANSAS C DTWN  CLEAR     72  29  20 SE8       29.91R                  
LEE'S SUMMIT   CLEAR     70  30  22 SE5       29.93R                  
ST JOSEPH      CLEAR     66  32  28 SE5       29.91R                  
CHILLICOTHE      N/A     63  43  48 CALM      29.94R                  
KIRKSVILLE     CLEAR     65  34  31 E3        29.94R                  
     
$$
MOZ066>068-077>081-088>096-101>105-010200-
...SOUTHWEST MISSOURI...
  
CITY           SKY/WX    TMP DP  RH WIND       PRES   REMARKS
SPRINGFIELD    CLEAR     68  45  43 N6        29.91R                  
JOPLIN         CLEAR     68  52  56 CALM      29.92R                  
               
$$
MOZ032>034-039>042-045>050-055>058-069>072-010200-
...CENTRAL MISSOURI...  
  
CITY           SKY/WX    TMP DP  RH WIND       PRES   REMARKS
COLUMBIA       CLEAR     65  34  31 NE8       29.94R                  
JEFFERSON CITY CLEAR     72  28  19 NE6       29.92R                  
ROLLA          CLEAR     59  37  44 NE3       29.93R                  
SEDALIA        CLEAR     69  30  23 NE3       29.93S                  
WHITEMAN AFB   CLEAR     64  34  32 NE2       29.92R                  
WARRENSBURG    CLEAR     68  30  24 E3        29.93R                  
OSAGE BEACH    CLEAR     66  30  26 E3        29.93R                  
               
$$
MOZ051-052-059>065-010200-
...EAST CENTRAL MISSOURI...
  
CITY           SKY/WX    TMP DP  RH WIND       PRES   REMARKS
ST LOUIS INTL  NOT AVBL                                               
SPIRIT OF STL  CLEAR     57  38  48 CALM      29.94R                  
ST CHARLES     CLEAR     64  34  32 NE5       29.94R                  
                   
$$
MOZ072>076-082>087-097>100-106>115-010200-
...SOUTH CENTRAL AND SOUTHEAST MISSOURI...
  
CITY           SKY/WX    TMP DP  RH WIND       PRES   REMARKS
CAPE GIRARDEAU CLEAR     62  39  42 NE7       29.92R                  
FARMINGTON     CLEAR     64  34  32 NE8       29.97R                  
POPLAR BLUFF   MOCLDY    59  54  83 CALM      29.91R                  
WEST PLAINS    CLEAR     70  45  40 N5        29.92R                  
                                       
$$

Return to Home page


Western Regional Climate Center, wrcc@dri.edu